#timestamp,LO_Frequency,Hit,StdDev 
1514923215.8,286046998.9,N
1514923235.7,286046998.2,N
1514923255.5,286046998.3,N
1514923275.4,286047002.8,N
1514923295.2,286047000.7,N
1514923315.0,286046999.8,N
1514923315.9,286046999.8,N
1514923335.8,286047002.0,N
1514923355.6,286047002.1,N
1514923375.5,286047000.7,N
1514923395.3,286046999.0,N
1514923415.1,286046999.1,N
1514923435.9,286046997.1,N
1514923455.7,286046997.4,N
1514923475.5,286046997.1,N
1514923495.4,286046997.0,N
1514923515.2,286046999.1,N
1514923535.1,286046996.7,N
1514923536.0,286046996.7,N
1514923555.8,286046998.6,N
1514923575.6,286046998.1,N
1514923595.5,286047000.2,N
1514923615.3,286047002.7,N
1514923635.2,286047000.8,N
1514923655.9,286047001.2,N
1514923675.7,286046996.8,N
1514923695.6,286046996.7,N
1514923715.4,286046996.8,N
1514923735.3,286046997.1,N
1514923755.1,286046999.6,N
1514923756.0,286046999.6,N
1514923775.8,286046998.8,N
1514923795.7,286047000.5,N
1514923815.5,286046998.7,N
1514923835.4,286047000.6,N
1514923855.2,286047000.6,N
1514923875.0,286047000.6,N
1514923875.9,286047000.6,N
1514923895.8,286047000.9,N
1514923915.6,286047000.8,N
1514923935.5,286047002.7,N
1514923955.3,286047005.6,Y
1514923975.1,286047004.6,P
1514923995.9,286047006.0,N
1514924015.7,286047005.9,N
1514924035.6,286047007.6,N
1514924055.4,286047005.8,N
1514924075.2,286047003.5,N
1514924095.1,286047003.8,N
1514924096.0,286047003.8,N
1514924115.8,286047001.7,N
1514924135.6,286047001.8,N
1514924155.5,286047004.4,N
1514924175.3,286047003.0,N
1514924195.2,286047003.1,N
1514924215.9,286047002.4,N
1514924235.3,286047000.0,N
1514924255.2,286047004.2,N
1514924275.0,286047002.3,N
1514924275.9,286047002.3,N
1514924295.8,286047004.0,N
1514924315.6,286047002.4,N
1514924335.4,286047000.0,N
1514924355.3,286047002.3,N
1514924375.1,286047002.2,N
1514924395.8,286047000.6,N
1514924415.7,286047000.7,N
1514924435.5,286046999.6,N
1514924455.4,286046999.2,N
1514924475.2,286047000.8,N
1514924495.0,286047000.1,N
1514924495.9,286047000.1,N
1514924515.8,286047001.5,N
1514924535.6,286047001.8,N
1514924555.4,286047005.5,N
1514924575.3,286047003.9,N
1514924595.1,286047001.6,N
1514924615.9,286047002.4,N
1514924635.7,286047001.7,N
1514924655.5,286047000.3,N
1514924675.4,286046998.8,N
1514924695.2,286046998.9,N
1514924715.0,286047000.5,N
1514924715.9,286047000.5,N
1514924735.8,286047001.4,N
1514924755.6,286047004.4,N
1514924775.5,286046998.1,N
1514924795.3,286047002.7,N
1514924815.1,286046998.4,N
1514924835.9,286047001.2,N
1514924855.7,286047003.4,N
1514924875.6,286047007.2,Y
1514924895.4,286047003.9,P
1514924915.2,286047001.5,N
1514924935.1,286047001.7,N
1514924936.0,286047001.7,N
1514924955.8,286047001.7,N
1514924975.6,286047003.5,Y
1514924995.5,286046999.9,P
1514925015.3,286047000.9,N
1514925035.2,286047001.6,N
1514925055.9,286047002.5,Y
1514925075.7,286047002.7,P
1514925095.6,286046998.2,N
1514925115.4,286046998.6,N
1514925135.3,286046996.6,N
1514925155.1,286046998.1,N
1514925156.0,286046998.1,N
1514925175.8,286047001.4,N
1514925195.7,286046998.6,N
1514925215.5,286046998.2,N
1514925235.3,286046998.1,N
1514925255.2,286047000.0,N
1514925275.0,286047001.8,N
1514925275.9,286047001.8,N
1514925295.8,286047001.4,N
1514925315.6,286047002.1,N
1514925335.4,286047001.1,N
1514925355.3,286046996.5,N
1514925375.1,286046994.9,N
1514925395.8,286046996.8,N
1514925415.7,286046998.2,N
1514925435.5,286046999.8,N
1514925455.4,286047000.0,N
1514925475.2,286046998.1,N
1514925495.0,286047001.3,N
1514925495.9,286047001.3,N
1514925515.8,286047003.8,N
1514925535.6,286047005.3,N
1514925555.5,286047003.5,N
1514925575.3,286047001.8,N
1514925595.1,286047000.6,N
1514925615.9,286046999.9,N
1514925635.7,286047000.9,N
1514925655.5,286047001.1,N
1514925675.4,286047000.7,N
1514925695.2,286047001.3,N
1514925715.1,286047004.2,N
1514925716.0,286047004.2,N
1514925735.8,286047003.1,N
1514925755.6,286047003.8,N
1514925775.5,286047001.3,N
1514925795.3,286047002.4,N
1514925815.1,286047000.0,N
1514925835.9,286047001.2,N
1514925855.7,286047004.2,N
1514925875.6,286047002.1,N
1514925895.4,286047001.9,N
1514925915.2,286047003.9,N
1514925935.1,286047002.5,N
1514925936.0,286047002.5,N
1514925955.8,286046999.9,N
1514925975.6,286047004.1,N
1514925995.5,286047002.5,N
1514926015.3,286046998.7,N
1514926035.2,286046998.4,N
1514926055.9,286047002.6,N
1514926075.7,286047001.9,N
1514926095.6,286047003.6,N
1514926115.4,286047007.6,Y
1514926135.2,286047001.9,P
1514926155.1,286047002.4,P
1514926156.0,286047002.4,P
1514926175.8,286047004.1,Y
1514926195.7,286046998.5,P
1514926215.5,286047002.0,N
1514926235.3,286047000.5,N
1514926255.2,286046998.6,N
1514926275.0,286047002.0,N
1514926275.9,286047002.0,N
1514926295.8,286047002.0,N
1514926315.6,286047004.4,N
1514926335.4,286047003.5,N
1514926355.3,286047001.7,N
1514926375.1,286047001.3,N
1514926395.9,286047004.4,N
1514926415.7,286047000.2,N
1514926435.5,286047002.6,N
1514926455.4,286047002.3,N
1514926475.2,286047001.8,N
1514926495.0,286047002.3,N
1514926495.9,286047002.3,N
1514926515.8,286047001.2,N
1514926535.6,286047000.6,N
1514926555.5,286047002.3,N
1514926575.3,286047002.3,N
1514926595.1,286046999.0,N
1514926615.9,286046999.1,N
1514926635.7,286047000.3,N
1514926655.5,286046998.9,N
1514926675.4,286046997.0,N
1514926695.2,286046999.1,N
1514926715.1,286046999.3,N
1514926716.0,286046999.3,N
1514926735.8,286046999.3,N
1514926755.6,286046998.9,N
1514926775.5,286046997.0,N
1514926795.3,286046996.2,N
